{"data":{"norad_id":53638,"epoch":"2026-09-20T22:05:06.645120Z","epoch_age_seconds":45992,"freshness":"FRESH","line1":"1 53638U 22104BC  26263.92021580  .00001217  00000+0  45786-4 0  9994","line2":"2 53638  53.1602  59.6583 0001059  91.3856 268.7268 15.35403189225802","mean_motion":15.35403189,"eccentricity":0.0001059,"inclination_deg":53.1602,"raan_deg":59.6583,"arg_perigee_deg":91.3856,"mean_anomaly_deg":268.7268,"bstar":4.5786e-5,"rev_number":22580,"period_min":93.786440611594,"perigee_km":458.99904527142,"apogee_km":460.44730405641,"semimajor_km":6837.8601746639,"source":"CELESTRAK","updated_at":"2026-09-21T09:00:32.946856Z"}}